Location: Gad�tanya
(48.0500°N, 20.8500°E)
Time: 11:38:10
(UTC+00:00)

Meteor 2-20 Rocket - Pass Details

Date: 05 July 2020
Orbit: 941 x 958 km, 82.5° (Epoch: 15 August)

Event Time Altitude Azimuth Distance (km) Brightness Sun altitude
Rises 23:42:31 0° 350° (N) 3,635 8.7 -18.0°
Reaches altitude 10° 23:45:01 10° 351° (N) 2,688 7.8 -17.9°
Maximum altitude 23:51:11 84° 81° (E) 967 4.5 -17.6°
Enters shadow 23:55:17 23° 168° (SSE) 1,929 5.6 -17.4°
